Weather in Kika

Russia / Republic of Buryatia     52°29′47″N   108°01′28″E
temp.,
°C
wind,
m/s
gust,
m/s
humid.,
%
clouds,
%
prec.,
mm/h
press.,
hPa
HPBL,
m
17 may, mon
mon1723:00+6ssw229398 0.1 101029
02:00+6ssw1295100 0.3 100862
05:00+6n2399100 1.1 1006201
08:00+5nne2395100 5.3 1007371
11:00+8nnw357867 0.2 1007970
14:00+9nw465899 0.4 10071690
17:00+10wnw585097 0.1 10061867
20:00+8wnw3871100 0.4 1006556
18 may, tue
tue1823:00+6nw3683100 0.4 1008990
02:00+3sw229098 0.8 100927
05:00+3sw1291100 0.3 101037
08:00+5wnw256893 0.6 10101183
11:00+9nw574196 0.3 10092156
14:00+10wnw5836100 0.3 10082415
17:00+11w583973 0.0 10052115
20:00+7sw2261100 0.0 100441
19 may, wed
wed1923:00+6se2269100 0.0 100248
02:00+6se2269100 0.0 99743
05:00+5s2279100 0.1 99467
08:00+2nnw3599100 2.4 998282
11:00+1nnw2498100 2.0 1004235
14:00+6n147126 2.1 1005939
17:00+10nnw2540100 0.0 10031762
20:00+6e11605 0.0 100210
20 may, thu
thu2023:00+2ese1170100 0.0 100216
02:00+3ne3481100 0.4 100294
05:00+1n2496100 0.3 1003166
08:00+4n2283100 0.3 1004362
11:00+8nnw3268100 0.0 1004791
14:00+10n4364100 0.0 1002840
17:00+12nne355355 0.0 998778
20:00+8nne2271100 0.0 99743
21 may, fri
fri2123:00+5nnw2382100 0.0 99974
02:00+2nnw2395100 0.1 999116
05:00+2nnw1297100 0.0 999129
08:00+6nw1180100 0.0 999353
11:00+5n2283100 0.0 998335
14:00+6n3382100 0.0 998321
17:00+6nw2284100 0.1 995368
20:00+1nnw2399100 1.7 998224